Location: Asheville, NC
(35.6000°N, 82.5500°W)
Time: 16:51:12
(UTC-05:00)

Vanguard 2 - Pass Details

Date: 18 February 2018
Orbit: 553 x 2939 km, 32.9° (Epoch: 18 February)

Event Time Altitude Azimuth Distance (km) Brightness Sun altitude
Rises 23:43:52 0° 272° (W) 3,160 - -62.1°
Reaches altitude 10° 23:46:59 10° 256° (WSW) 2,014 - -62.5°
Maximum altitude 23:50:15 20° 207° (SSW) 1,323 - -62.8°
Drops below altitude 10° 23:53:13 10° 158° (SSE) 1,811 - -63.1°
Sets 23:55:51 0° 140° (SE) 2,738 - -63.4°
